Regional Weather Roundup
Issued by NWS Charleston, SC

Home | Current Version | Previous Version | Text Only | Print | Product List | Glossary On
Versions: 1 2 3 4 5 6 7 8 9 10 11 12 13 14 15 16 17 18 19 20 21 22 23 24 25 26 27 28 29 30 31 32 33 34 35 36 37 38 39 40 41 42 43 44 45 46 47 48 49 50
223
ASUS42 KCHS 150227
RWRCHS

REGIONAL WEATHER ROUNDUP
NATIONAL WEATHER SERVICE CHARLESTON SC
900 PM EST THU DEC 14 2017

NOTE: "FAIR" INDICATES FEW OR NO CLOUDS BELOW 12,000 FEET WITH NO
SIGNIFICANT WEATHER AND/OR OBSTRUCTIONS TO VISIBILITY.

NOT ALL STATIONS ARE QUALITY CONTROLLED. USE DATA WITH CAUTION...
ESPECIALLY DEWPOINT OBSERVATIONS.

SCZ027-030-031-034>040-042>050-150300-
...SOUTHEAST SOUTH CAROLINA...

CITY           SKY/WX    TMP DP  RH WIND       PRES   REMARKS
N CHARLESTON   CLOUDY    46  42  86 SW7       29.99S
WATERFRONT PRK   N/A     52  46  80 CALM      29.85R
JOHNS ISLAND   FAIR      46  43  87 CALM      30.00S
PINOPOLIS        N/A     52  43  71 SW6       29.90R
MONCKS CORNER  FAIR      46  37  71 CALM      29.99R
SUMMERVILLE    FAIR      45  41  87 CALM      30.00R
BEAUFORT MCAS  CLOUDY    47  43  86 SW5       30.00S
BEAUFORT ARPT  FAIR      50  45  81 S6        30.01R
HILTON HEAD IS PTCLDY    50  45  81 S6        30.02S
WALTERBORO     CLOUDY    45  39  81 CALM      30.00S
ALLENDALE      CLOUDY    48  37  66 CALM      29.98R

...SOUTHERN MIDLANDS AND PEE DEE...

CITY           SKY/WX    TMP DP  RH WIND       PRES   REMARKS
GEORGETOWN     FAIR      41  41 100 CALM      30.00S
KINGSTREE      FAIR      41  37  87 CALM      29.98S
ORANGEBURG     CLOUDY    46  37  71 SW3       29.98R
BARNWELL         N/A     48  37  66 CALM      29.98S
AIKEN          FAIR      45  34  65 SW5       30.00S
MANNING        FAIR      43  27  52 MISG      29.98R
COLUMBIA       CLOUDY    47  37  68 W3        29.97R
SUMTER         CLOUDY    46  34  63 SW5       29.95R
FLORENCE       CLOUDY    41  35  79 CALM      29.98R
MYRTLE BEACH   CLOUDY    45  42  89 CALM      30.00R
N MYRTLE BEACH CLOUDY    43  42  97 CALM      29.98S

$$

GAZ063-065-086>088-099>101-113>116-118-119-134>141-150-150300-
...SOUTHEAST GEORGIA...

CITY           SKY/WX    TMP DP  RH WIND       PRES   REMARKS
SAVANNAH ARPT  CLOUDY    53  39  59 SW3       30.02R
HUNTER AAF     CLOUDY    50  39  66 SW2       29.99R
FORT STEWART   PTCLDY    46  40  81 CALM      30.00R
STATESBORO     CLOUDY    46  39  76 CALM      30.00S
SYLVANIA       CLOUDY    45  44  94 CALM      30.01R
CLAXTON        FAIR      47  43  84 CALM      30.01S

...CSRA...CENTRAL AND FAR SOUTHEAST GEORGIA...

CITY           SKY/WX    TMP DP  RH WIND       PRES   REMARKS
THOMSON        CLOUDY    41  36  83 W5        30.03R
AUGUSTA-BUSH   CLOUDY    44  37  76 CALM      29.98R
AUGUSTA-DANIEL CLOUDY    51  36  56 VRB3      29.98R
SWAINSBORO     FAIR      46  46 100 CALM      30.01S
VIDALIA        CLOUDY    50  41  71 CALM      30.01S
EASTMAN        FAIR      45  35  66 CALM      30.04R
HAZLEHURST     FAIR      49  35  58 SW3       30.01S
ALMA           CLEAR     42  39  89 CALM      30.02R
WAYCROSS       CLEAR     43  38  83 CALM      30.03S
JESUP          NOT AVBL
BAXLEY         FAIR      41  41 100 CALM      30.02R
BRUNSWICK      PTCLDY    43  39  87 CALM      30.05R
SAINT SIMONS   PTCLDY    50  42  74 CALM      30.03R

$$

SCZ027-028-034-036>038-045-046-048>050-GAZ119-141-150300-
...LAKE AND SUPPLEMENTAL COASTAL OBSERVATIONS...

STATION/POSITION TIME  TEMP    WIND        PRES    WAVE   SWELL
                       AIR SEA DIR/SP/G            HT/PER HT/PER/DIR
                 (UTC) (F)     (DEG/KT/KT) (MB)    (FT/S) (FT/S/D)
WINYAH BAY       0145   47        CALM     1015.0S
LAKE MURRAY      0150   53     240/  9/ 12 1013.5R
ACE BASIN NERRS  0145   47        CALM     1016.0R
FORT PULASKI     0200   53 54  230/  3/  4 1016.7
SAPELO ISLAND    0200   50     190/  4     1017.0

$$

ANZ835-935-AMZ111-154-330-350-352-354-370-450-454-472-150300-
...C-MAN AND BUOY OBSERVATIONS...

STATION/POSITION TIME  TEMP    WIND        PRES    WAVE   SWELL
                       AIR SEA DIR/SP/G            HT/PER HT/PER/DIR
                 (UTC) (F)     (DEG/KT/KT) (MB)    (FT/S) (FT/S/D)
BUOY 41004       0210      71  250/ 16/ 19 1015.6
BUOY 41008       0150   60 59  230/ 10/ 12 1016.7R   1/ 4
FOLLY BEACH CMAN 0200   53     230/  6/  8 1016.1R
CAPERS NEARSHORE 0208   51 55  240/ 10/ 14 1015.4R
FRIPP NEARSHORE  0208   53 55  200/  6/ 12 1011.7F


STATION/POSITION TIME  TEMP    WIND        PRES    WAVE   SWELL
                       AIR SEA DIR/SP/G            HT/PER HT/PER/DIR
                 (UTC) (F)     (DEG/KT/KT) (MB)    (FT/S) (FT/S/D)
5E ST. MARYS GA  0200      62                N/A     1/11
FRYING PAN BUOY  0210   60 66  290/ 14/ 17 1015.3
BUOY 41025       0210   56 74   10/  8/ 14 1015.8
CAPE LOOKOUT NC  0200           20/  5/  5 1015.6F
BUOY 41002       0150   70 74  260/ 21/ 25 1015.8R   8/ 8   3/100/19
BUOY 41010       NOT AVBL
ST AUGUSTINE FL  0200   64 63  210/  5/  5 1017.8R


$$




USA.gov is the U.S. government's official web portal to all federal, state and local government web resources and services.